• In Netherlands
  • List of Countries
  • For 7 days
  • Water Temperature
  • Satellite Maps
  • Weather Map
  • Weather Widgets
  • user-avatar
    Login

    Hourly Weather Veliko Tarnovo

    Today, 18 October, Wednesday

    Time Temperature Precipitation Wind Pressure Humidity
    00:00 +18°C° 0 mm 1 mps 745 mmHg 57%
    01:00 +16°C° 0 mm 1 mps 745 mmHg 58%
    02:00 +16°C° 0 mm 1 mps 745 mmHg 59%
    03:00 +16°C° 0 mm 1 mps 744 mmHg 60%
    04:00 +16°C° 0 mm 1 mps 744 mmHg 60%
    05:00 +15°C° 0 mm 1 mps 744 mmHg 61%
    06:00 +16°C° 0 mm 1 mps 744 mmHg 60%
    07:00 +18°C° 0 mm 1 mps 744 mmHg 59%
    08:00 +19°C° 0 mm 1 mps 744 mmHg 55%
    09:00 +21°C° 0 mm 1 mps 744 mmHg 49%
    10:00 +23°C° 0 mm 1 mps 744 mmHg 43%
    11:00 +25°C° 0 mm 1 mps 744 mmHg 37%
    12:00 +26°C° 0 mm 1 mps 743 mmHg 34%
    13:00 +26°C° 0 mm 1 mps 743 mmHg 32%
    14:00 +27°C° 0 mm 1 mps 743 mmHg 30%
    15:00 +26°C° 0 mm 1 mps 742 mmHg 33%
    16:00 +25°C° 0 mm 1 mps 742 mmHg 37%
    17:00 +23°C° 0 mm 1 mps 741 mmHg 40%
    18:00 +22°C° 0 mm 1 mps 741 mmHg 43%
    19:00 +21°C° 0 mm 1 mps 741 mmHg 45%
    20:00 +18°C° 0 mm 2 mps 741 mmHg 47%
    21:00 +18°C° 0 mm 2 mps 741 mmHg 48%
    22:00 +17°C° 0 mm 2 mps 741 mmHg 48%
    23:00 +17°C° 0 mm 2 mps 741 mmHg 49%

    Tomorrow, 19 October, Thursday

    Time Temperature Precipitation Wind Pressure Humidity
    00:00 +16°C° 0 mm 2 mps 741 mmHg 50%
    01:00 +16°C° 0 mm 2 mps 741 mmHg 50%
    02:00 +16°C° 0 mm 1 mps 741 mmHg 51%
    03:00 +15°C° 0 mm 1 mps 741 mmHg 51%
    04:00 +15°C° 0 mm 1 mps 740 mmHg 51%
    05:00 +15°C° 0 mm 1 mps 740 mmHg 52%
    06:00 +15°C° 0 mm 1 mps 740 mmHg 51%
    07:00 +16°C° 0 mm 1 mps 740 mmHg 51%
    08:00 +16°C° 0 mm 1 mps 740 mmHg 51%
    09:00 +20°C° 0 mm 1 mps 740 mmHg 45%
    10:00 +22°C° 0 mm 1 mps 741 mmHg 39%
    11:00 +24°C° 0 mm 1 mps 741 mmHg 33%
    12:00 +25°C° 0 mm 1 mps 740 mmHg 32%
    13:00 +26°C° 0 mm 1 mps 740 mmHg 30%
    14:00 +26°C° 0 mm 1 mps 740 mmHg 28%
    15:00 +25°C° 0 mm 1 mps 740 mmHg 32%
    16:00 +24°C° 0 mm 1 mps 739 mmHg 36%
    17:00 +22°C° 0 mm 1 mps 739 mmHg 40%
    18:00 +21°C° 0 mm 1 mps 739 mmHg 42%
    19:00 +20°C° 0 mm 1 mps 739 mmHg 44%
    20:00 +19°C° 0 mm 1 mps 740 mmHg 45%
    21:00 +19°C° 0 mm 1 mps 740 mmHg 46%
    22:00 +18°C° 0 mm 1 mps 740 mmHg 47%
    23:00 +18°C° 0 mm 1 mps 740 mmHg 48%

    Day after tomorrow, 20 October, Friday

    Time Temperature Precipitation Wind Pressure Humidity
    00:00 +16°C° 0 mm 1 mps 740 mmHg 49%
    01:00 +16°C° 0 mm 1 mps 740 mmHg 50%
    02:00 +16°C° 0 mm 1 mps 740 mmHg 51%
    03:00 +16°C° 0 mm 1 mps 739 mmHg 51%
    04:00 +15°C° 0 mm 1 mps 739 mmHg 52%
    05:00 +15°C° 0 mm 1 mps 739 mmHg 53%
    06:00 +16°C° 0 mm 1 mps 739 mmHg 53%
    07:00 +16°C° 0 mm 1 mps 739 mmHg 53%
    08:00 +18°C° 0 mm 1 mps 740 mmHg 53%
    09:00 +20°C° 0 mm 1 mps 740 mmHg 48%
    10:00 +22°C° 0 mm 1 mps 740 mmHg 42%
    11:00 +24°C° 0 mm 1 mps 740 mmHg 37%
    12:00 +25°C° 0 mm 2 mps 740 mmHg 36%
    13:00 +25°C° 0 mm 2 mps 740 mmHg 35%
    14:00 +26°C° 0 mm 2 mps 740 mmHg 34%
    15:00 +25°C° 0 mm 2 mps 740 mmHg 39%
    16:00 +23°C° 0 mm 1 mps 739 mmHg 43%
    17:00 +22°C° 0 mm 1 mps 739 mmHg 47%
    18:00 +21°C° 0 mm 1 mps 739 mmHg 49%
    19:00 +20°C° 0 mm 1 mps 740 mmHg 52%
    20:00 +19°C° 0 mm 1 mps 740 mmHg 55%
    21:00 +19°C° 0 mm 1 mps 740 mmHg 56%
    22:00 +18°C° 0 mm 1 mps 740 mmHg 57%
    23:00 +18°C° 0 mm 1 mps 741 mmHg 58%

    21 October, Saturday

    Time Temperature Precipitation Wind Pressure Humidity
    00:00 +16°C° 0 mm 1 mps 741 mmHg 59%
    01:00 +16°C° 0 mm 1 mps 741 mmHg 60%
    02:00 +16°C° 0 mm 1 mps 741 mmHg 61%
    03:00 +15°C° 0 mm 1 mps 741 mmHg 62%
    04:00 +15°C° 0 mm 1 mps 741 mmHg 63%
    05:00 +15°C° 0 mm 1 mps 740 mmHg 64%
    06:00 +15°C° 0 mm 1 mps 741 mmHg 63%
    07:00 +15°C° 0 mm 0 mps 741 mmHg 62%
    08:00 +15°C° 0 mm 0 mps 741 mmHg 61%
    09:00 +19°C° 0 mm 1 mps 741 mmHg 55%
    10:00 +21°C° 0 mm 1 mps 742 mmHg 49%
    11:00 +22°C° 0 mm 1 mps 742 mmHg 44%
    12:00 +23°C° 0 mm 2 mps 742 mmHg 42%
    13:00 +23°C° 0 mm 2 mps 741 mmHg 41%
    14:00 +24°C° 0 mm 2 mps 741 mmHg 39%
    15:00 +23°C° 0 mm 2 mps 741 mmHg 43%
    16:00 +21°C° 0 mm 2 mps 741 mmHg 47%
    17:00 +20°C° 0 mm 2 mps 741 mmHg 51%
    18:00 +19°C° 0 mm 2 mps 741 mmHg 55%
    19:00 +18°C° 0 mm 1 mps 741 mmHg 59%
    20:00 +16°C° 0 mm 1 mps 742 mmHg 62%
    21:00 +16°C° 0 mm 1 mps 742 mmHg 65%
    22:00 +15°C° 0 mm 1 mps 742 mmHg 68%
    23:00 +15°C° 0 mm 1 mps 742 mmHg 70%

    22 October, Sunday

    Time Temperature Precipitation Wind Pressure Humidity
    00:00 +14°C° 0 mm 1 mps 742 mmHg 73%
    01:00 +14°C° 0 mm 1 mps 742 mmHg 75%
    02:00 +14°C° 0 mm 1 mps 742 mmHg 78%
    03:00 +13°C° 0 mm 1 mps 742 mmHg 79%
    04:00 +13°C° 0 mm 1 mps 742 mmHg 81%
    05:00 +13°C° 0 mm 1 mps 742 mmHg 82%
    06:00 +13°C° 0 mm 1 mps 742 mmHg 81%
    07:00 +14°C° 0 mm 1 mps 742 mmHg 80%
    08:00 +14°C° 0 mm 1 mps 742 mmHg 78%
    09:00 +16°C° 0 mm 1 mps 742 mmHg 69%
    10:00 +18°C° 0 mm 2 mps 742 mmHg 61%
    11:00 +20°C° 0 mm 2 mps 742 mmHg 52%
    12:00 +20°C° 0 mm 2 mps 741 mmHg 49%
    13:00 +21°C° 0 mm 2 mps 741 mmHg 45%
    14:00 +23°C° 0 mm 2 mps 740 mmHg 42%
    15:00 +21°C° 0 mm 2 mps 740 mmHg 46%
    16:00 +20°C° 0 mm 2 mps 739 mmHg 50%
    17:00 +19°C° 0 mm 2 mps 739 mmHg 53%
    18:00 +18°C° 0 mm 2 mps 739 mmHg 58%
    19:00 +16°C° 0 mm 2 mps 739 mmHg 63%
    20:00 +15°C° 0 mm 2 mps 739 mmHg 68%
    21:00 +15°C° 0 mm 2 mps 739 mmHg 72%
    22:00 +14°C° 0 mm 2 mps 739 mmHg 77%
    23:00 +14°C° 0 mm 2 mps 738 mmHg 81%

    23 October, Monday

    Time Temperature Precipitation Wind Pressure Humidity
    00:00 +14°C° 0 mm 2 mps 738 mmHg 82%
    01:00 +13°C° 0 mm 2 mps 738 mmHg 84%
    02:00 +13°C° 0 mm 2 mps 737 mmHg 86%
    03:00 +13°C° 0 mm 2 mps 737 mmHg 86%
    04:00 +13°C° 0 mm 2 mps 737 mmHg 87%
    05:00 +13°C° 0 mm 2 mps 737 mmHg 87%
    06:00 +13°C° 0 mm 2 mps 737 mmHg 86%
    07:00 +13°C° 0 mm 3 mps 737 mmHg 84%
    08:00 +13°C° 0 mm 3 mps 737 mmHg 83%
    09:00 +14°C° 0 mm 3 mps 736 mmHg 77%
    10:00 +16°C° 0 mm 3 mps 736 mmHg 71%
    11:00 +18°C° 0 mm 4 mps 736 mmHg 65%
    12:00 +18°C° 0 mm 4 mps 736 mmHg 62%
    13:00 +19°C° 0 mm 4 mps 735 mmHg 59%
    14:00 +19°C° 0 mm 4 mps 735 mmHg 55%
    15:00 +19°C° 0 mm 4 mps 735 mmHg 58%
    16:00 +18°C° 0 mm 4 mps 735 mmHg 61%
    17:00 +17°C° 0 mm 3 mps 735 mmHg 64%
    18:00 +15°C° 0 mm 4 mps 735 mmHg 68%
    19:00 +14°C° 0 mm 4 mps 735 mmHg 73%
    20:00 +14°C° 0 mm 4 mps 735 mmHg 77%
    21:00 +13°C° 0 mm 4 mps 735 mmHg 79%
    22:00 +13°C° 0 mm 4 mps 735 mmHg 81%
    23:00 +13°C° 0 mm 3 mps 735 mmHg 83%
    Show more